This is the latest recevied weather packets stored in our database for station/object 9M4RBN-3. If no packets are shown the sender has not sent any weather packets the latest 10 day(s).
| Time | Temp. | Humidity | Pressure | Rain* | Wind** | Luminosity | Snow |
|---|---|---|---|---|---|---|---|
| 1777649790 | 24.44° C | 61% | 1016 hPa | - | - | - | - |
| 1777648890 | 23.89° C | 45% | 1016.1 hPa | - | - | - | - |
| 1777647990 | 24.44° C | 45% | 1016.1 hPa | - | - | - | - |
| 1777647090 | 24.44° C | 45% | 1015.9 hPa | - | - | - | - |
| 1777646192 | 24.44° C | 45% | 1016 hPa | - | - | - | - |
| 1777645294 | 24.44° C | 45% | 1015.8 hPa | - | - | - | - |
| 1777644394 | 25° C | 45% | 1015.7 hPa | - | - | - | - |
| 1777643494 | 25° C | 44% | 1015.6 hPa | - | - | - | - |
| 1777642594 | 25° C | 44% | 1015.5 hPa | - | - | - | - |
| 1777641694 | 25.56° C | 44% | 1015.4 hPa | - | - | - | - |
| 1777640794 | 25.56° C | 44% | 1015.1 hPa | - | - | - | - |
| 1777639928 | 26.11° C | 45% | 1014.8 hPa | - | - | - | - |
| 1777639894 | 26.11° C | 45% | 1014.8 hPa | - | - | - | - |
| 1777638994 | 26.67° C | 48% | 1014.8 hPa | - | - | - | - |
| 1777638094 | 27.22° C | 57% | 1014.8 hPa | - | - | - | - |
| 1777637194 | 27.78° C | 69% | 1014.5 hPa | - | - | - | - |
| 1777636294 | 27.22° C | 68% | 1014.4 hPa | - | - | - | - |
| 1777635394 | 26.67° C | 58% | 1014.1 hPa | - | - | - | - |
| 1777634493 | 26.67° C | 40% | 1013.9 hPa | - | - | - | - |
| 1777633593 | 27.78° C | 58% | 1013.5 hPa | - | - | - | - |
| 1777632693 | 28.33° C | 69% | 1013.5 hPa | - | - | - | - |
| 1777631793 | 27.78° C | 69% | 1013.6 hPa | - | - | - | - |
| 1777630893 | 27.78° C | 69% | 1013.4 hPa | - | - | - | - |
| 1777629993 | 27.22° C | 69% | 1013.4 hPa | - | - | - | - |
| 1777629093 | 26.67° C | 62% | 1013.6 hPa | - | - | - | - |
* Rain since midnight (hover to see other rain measurements)
** Current wind speed in m/s (hover to see current wind gust speed)